Location: Unspecified
(0.0000°N, 0.0000°E)
Time: 15:48:12
(UTC+00:00)

Vanguard 2 - Pass Details

Date: 17 December 2017
Orbit: 553 x 2939 km, 32.9° (Epoch: 17 July)

Event Time Altitude Azimuth Distance (km) Brightness Sun altitude
Rises 22:40:47 0° 295° (WNW) 2,849 - -60.3°
Reaches altitude 10° 22:42:47 10° 290° (WNW) 2,063 - -60.6°
Maximum altitude 22:47:21 56° 212° (SSW) 974 - -61.2°
Drops below altitude 10° 22:54:22 10° 134° (SE) 3,136 - -62.2°
Sets 22:58:04 0° 131° (SE) 4,503 - -62.7°
